Location: Caracas
(10.5000°N, 66.9170°W)
Time: 21:43:01
(UTC-04:00)

Envisat - Visible Passes

Search period start: 22 April 2018 00:00
Search period end: 02 May 2018 00:00
Orbit: 764 x 766 km, 98.2° (Epoch: 22 April)

Date Brightness Start Highest point End Pass type
(mag) Time Alt. Az. Time Alt. Az. Time Alt. Az.
22 Apr 4.2 19:23:29 15° ESE 19:26:10 22° ENE 19:30:00 10° NNE visible
22 Apr 5.0 21:03:41 21° WSW 21:04:55 23° W 21:08:50 10° NW visible
23 Apr 3.3 20:26:29 39° SSW 20:28:14 64° WSW 20:33:15 10° NNW visible
24 Apr 3.3 19:49:18 27° SE 19:51:37 45° ENE 19:56:25 10° N visible
24 Apr 5.8 21:29:42 10° WSW 21:30:29 10° W 21:31:16 10° W visible
25 Apr 4.5 19:12:06 10° ESE 19:15:05 16° ENE 19:18:09 10° NE visible
25 Apr 4.6 20:52:18 26° SW 20:53:47 30° W 20:58:11 10° NW visible
26 Apr 2.9 20:15:07 38° S 20:17:07 87° W 20:22:11 10° NNW visible
27 Apr 3.7 19:37:55 21° SE 19:40:31 33° ENE 19:45:01 10° NNE visible
27 Apr 5.5 21:18:07 14° WSW 21:19:20 15° W 21:22:05 10° WNW visible
28 Apr 4.8 19:02:14 10° E 19:04:00 12° ENE 19:05:46 10° NE visible
28 Apr 4.1 20:40:55 31° SW 20:42:38 41° WSW 20:47:23 10° NNW visible
29 Apr 2.9 20:03:44 33° SSE 20:05:59 70° ENE 20:11:02 10° N visible
30 Apr 4.1 19:26:32 15° ESE 19:29:25 25° ENE 19:33:29 10° NNE visible
30 Apr 5.2 21:06:44 18° WSW 21:08:11 20° W 21:11:50 10° NW visible
01 May 3.5 20:29:32 34° SSW 20:31:30 56° WSW 20:36:27 10° NNW visible
